Orangeburg, SC

1:43 PM EDT on May 26, 2017 (GMT -0400)
Orangeburg Municipal

Weather History for KOGB - March, 2012

Change the Weather History Date:

Saturday, March 3, 2012

  Actual Average Record
Temperature  
Mean Temperature 63 °F 53 °F  
Max Temperature 71 °F 65 °F 83 °F (1992)
Min Temperature 55 °F 41 °F 6 °F (1980)
Degree Days  
Heating Degree Days 2 12  
Month to date heating degree days 2 36  
Since 1 July heating degree days 1588 1968  
Cooling Degree Days 0 0  
Month to date cooling degree days 12 0  
Year to date cooling degree days 24 3  
Growing Degree Days 13 (Base 50)    
Moisture  
Dew Point 58 °F    
Average Humidity 90    
Maximum Humidity 93    
Minimum Humidity 68    
Precipitation  
Precipitation 1.68 in 0.13 in 2.35 in (1991)
Month to date precipitation 2.02 0.39  
Year to date precipitation 5.20 7.96  
Sea Level Pressure  
Sea Level Pressure 29.75 in    
Wind  
Wind Speed 8 mph (SW)    
Max Wind Speed 21 mph    
Max Gust Speed 32 mph    
Visibility 6 miles    
Events Rain    
T = Trace of Precipitation, MM = Missing Value Source: NWS Daily Summary

Daily Weather History Graph

Daily Weather History Graph

Search for Another Location

Airport or City:

Trip Planner

Search our weather history database for the weather conditions in past years. The results will help you decide how hot, cold, wet, or windy it might be!

Date:

Astronomy

Mar. 03, 2012 Rise Set
Actual Time 6:48 AM EST 6:22 PM EST
Civil Twilight 6:23 AM EST 6:47 PM EST
Nautical Twilight 5:55 AM EST 7:15 PM EST
Astronomical Twilight 5:26 AM EST 7:44 PM EST
Moon 1:42 PM EST (3/3) 3:12 AM EST (3/3)
Length of Visible Light 12h 23m
Length of Day
11h 33m
Waxing Gibbous, 75% of the Moon is Illuminated
Mar 3
Waxing Gibbous
Mar 8
Full
Mar 14
Last Quarter
Mar 22
New
Mar 30
First Quarter

Hourly Weather History & Observations

Time (EST) Temp. Dew Point Humidity Pressure Visibility Wind Dir Wind Speed Gust Speed Precip Events Conditions
12:53 AM 71.1 °F 60.1 °F 68% 29.75 in 10.0 mi SSW 9.2 mph - N/A   Clear
1:53 AM 71.1 °F 60.1 °F 68% 29.74 in 10.0 mi SW 11.5 mph 20.7 mph N/A   Clear
2:53 AM 70.0 °F 61.0 °F 73% 29.70 in 10.0 mi SSW 11.5 mph 24.2 mph 0.00 in   Overcast
3:53 AM 66.9 °F 63.0 °F 87% 29.71 in 6.0 mi SW 10.4 mph 19.6 mph 0.02 in Rain Rain
4:53 AM 66.9 °F 64.0 °F 90% 29.71 in 9.0 mi SSW 9.2 mph 17.3 mph 0.01 in Rain Light Rain
5:15 AM 66.2 °F 64.4 °F 94% 29.73 in 5.0 mi SW 17.3 mph 25.3 mph 0.03 in Rain Light Rain
5:36 AM 66.2 °F 64.4 °F 94% 29.73 in 10.0 mi SSW 15.0 mph 32.2 mph 0.04 in   Overcast
5:53 AM 66.9 °F 63.0 °F 87% 29.73 in 10.0 mi SW 16.1 mph 29.9 mph 0.04 in   Overcast
6:53 AM 66.9 °F 62.1 °F 84% 29.76 in 10.0 mi NW 10.4 mph 17.3 mph N/A   Mostly Cloudy
7:44 AM 62.6 °F 57.2 °F 82% 29.77 in 2.0 mi West 8.1 mph - 0.05 in Rain Rain
7:53 AM 64.0 °F 57.9 °F 80% 29.76 in 8.0 mi West 11.5 mph - 0.06 in Rain Light Rain
8:37 AM 62.6 °F 59.0 °F 88% 29.78 in 1.8 mi West 11.5 mph - 0.15 in Rain Heavy Rain
8:44 AM 62.6 °F 59.0 °F 88% 29.78 in 1.2 mi WSW 10.4 mph - 0.22 in Rain Heavy Rain
8:53 AM 63.0 °F 59.0 °F 87% 29.78 in 2.0 mi West 10.4 mph - 0.25 in Rain Rain
9:01 AM 62.6 °F 59.0 °F 88% 29.77 in 5.0 mi WNW 10.4 mph - 0.01 in Rain Rain
9:15 AM 62.6 °F 59.0 °F 88% 29.78 in 1.8 mi WSW 9.2 mph 18.4 mph 0.11 in Rain Heavy Rain
9:22 AM 62.6 °F 59.0 °F 88% 29.77 in 1.0 mi Variable 4.6 mph - 0.17 in Rain Heavy Rain
9:32 AM 62.6 °F 59.0 °F 88% 29.78 in 2.0 mi WSW 5.8 mph - 0.21 in Rain Heavy Rain
9:53 AM 62.1 °F 60.1 °F 93% 29.78 in 3.0 mi SW 4.6 mph - 0.26 in Rain Rain
10:02 AM 62.6 °F 60.8 °F 94% 29.77 in 5.0 mi SW 5.8 mph - 0.01 in Rain Rain
10:22 AM 62.6 °F 60.8 °F 94% 29.76 in 6.0 mi South 3.5 mph - 0.04 in Rain Rain
10:53 AM 62.1 °F 60.1 °F 93% 29.78 in 6.0 mi SW 6.9 mph - 0.09 in Rain Rain
11:53 AM 62.1 °F 60.1 °F 93% 29.77 in 5.0 mi South 9.2 mph - 0.09 in Rain Rain
12:49 PM 62.6 °F 60.8 °F 94% 29.75 in 10.0 mi South 6.9 mph - 0.05 in   Overcast
12:53 PM 62.1 °F 60.1 °F 93% 29.74 in 10.0 mi South 6.9 mph - 0.05 in   Overcast
1:53 PM 61.0 °F 57.9 °F 90% 29.71 in 10.0 mi South 9.2 mph - 0.00 in   Overcast
2:07 PM 60.8 °F 57.2 °F 88% 29.73 in 10.0 mi Variable 6.9 mph - N/A   Overcast
2:53 PM 61.0 °F 57.9 °F 90% 29.78 in 2.5 mi SW 8.1 mph - 0.05 in Rain Rain
3:04 PM 60.8 °F 57.2 °F 88% 29.76 in 3.0 mi SSW 4.6 mph - 0.04 in Rain Heavy Rain
3:13 PM 60.8 °F 57.2 °F 88% 29.77 in 2.5 mi WSW 5.8 mph - 0.07 in Rain Heavy Rain
3:16 PM 60.8 °F 57.2 °F 88% 29.78 in 3.0 mi WSW 5.8 mph - 0.08 in Rain Heavy Rain
3:53 PM 60.1 °F 57.9 °F 93% 29.74 in 5.0 mi SSW 4.6 mph - 0.16 in Rain Rain
4:53 PM 59.0 °F 57.0 °F 93% 29.73 in 9.0 mi SSW 4.6 mph - 0.02 in Rain Light Rain
5:25 PM 59.0 °F 57.2 °F 94% 29.73 in 4.0 mi South 5.8 mph - 0.07 in Rain Rain
5:53 PM 59.0 °F 57.0 °F 93% 29.71 in 4.0 mi SSE 3.5 mph - 0.13 in Rain Rain
6:53 PM 57.9 °F 55.9 °F 93% 29.76 in 5.0 mi SW 4.6 mph - 0.07 in Rain Rain
7:17 PM 57.2 °F 55.4 °F 94% 29.74 in 10.0 mi South 3.5 mph - 0.01 in Rain Light Rain
7:25 PM 57.2 °F 57.2 °F 100% 29.75 in 10.0 mi Calm Calm - 0.01 in   Overcast
7:53 PM 57.9 °F 55.9 °F 93% 29.75 in 7.0 mi SSW 4.6 mph - 0.04 in Rain Light Rain
8:12 PM 57.2 °F 55.4 °F 94% 29.77 in 6.0 mi WSW 6.9 mph - 0.02 in Rain Rain
8:19 PM 57.2 °F 55.4 °F 94% 29.77 in 6.0 mi WSW 8.1 mph - 0.03 in Rain Rain
8:26 PM 57.2 °F 55.4 °F 94% 29.75 in 6.0 mi WSW 5.8 mph - 0.04 in Rain Rain
8:40 PM 57.2 °F 55.4 °F 94% 29.75 in 6.0 mi West 3.5 mph - 0.06 in Rain Light Rain
8:53 PM 57.9 °F 55.9 °F 93% 29.74 in 6.0 mi West 3.5 mph - 0.07 in Rain Light Rain
9:15 PM 57.2 °F 55.4 °F 94% 29.76 in 6.0 mi WSW 5.8 mph - 0.01 in Rain Light Rain
9:29 PM 57.2 °F 57.2 °F 100% 29.74 in 5.0 mi Calm Calm - 0.04 in Rain Rain
9:41 PM 57.2 °F 55.4 °F 94% 29.75 in 4.0 mi SW 3.5 mph - 0.07 in Rain Rain
9:53 PM 57.9 °F 55.9 °F 93% 29.75 in 4.0 mi NW 8.1 mph - 0.10 in Rain Rain
10:03 PM 55.4 °F 53.6 °F 94% 29.76 in 5.0 mi NW 5.8 mph - 0.01 in Rain Rain
10:07 PM 55.4 °F 53.6 °F 94% 29.75 in 5.0 mi NNW 8.1 mph - 0.02 in Rain Rain
10:53 PM 55.0 °F 52.0 °F 89% 29.75 in 6.0 mi NNW 3.5 mph - 0.08 in Rain Rain
11:53 PM 55.0 °F 53.1 °F 93% 29.76 in 5.0 mi WNW 6.9 mph - 0.07 in Rain Light Rain